Notices

What's New in latest Release from April 7th, 2021:

- Updated Glossary, including Speed of Maximum Gust, and Total Hourly Precipitation

- Updated national and regional climate services offices contacts and prices information

- Addition of station inventory lists for 1981-2010, 1971-2000, and 1961-1990 Normals.

If you haven't already, please take our survey and provide feedback about our website: https://eccc.sondage-survey.ca/f/LanguageSelection.aspx?s=442ca660-fcf1-47c0-95a9-59707d6fd709

Hourly Data Report for September 26, 2019

QUALICUM BEACH AIRPORT
BRITISH COLUMBIA
Current Station Operator: ECCC - MSC

49°20'14.000" N
124°23'38.000" W
58.20 m
1026562
71766
VOQ

Download Data

Hourly Data (September 2019)
Hourly Data Report for September 26, 2019
TIME
LST
Temp Definition
°C
Dew Point Definition
°C
Rel Hum Definition
%
Precip. Amount Definition
mm

Wind Dir Definition
10's deg

Wind Spd Definition
km/h
Visibility Definition
km
Stn Press Definition
kPa
Hmdx Definition


Wind Chill Definition


Weather Definition


00:00 12.1 10.1 87 0.0 23 3   100.25     LegendNANA
01:00 12.0 10.6 92 0.0 32 2   100.28     LegendNANA
02:00 12.8 11.7 93 0.0 10 13   100.26     LegendNANA
03:00 12.7 11.8 95 0.0 34 2   100.37     LegendNANA
04:00 12.2 11.6 96 1.2 29 14   100.48     LegendNANA
05:00 12.4 11.8 96 0.7 31 14   100.55     LegendNANA
06:00 12.4 11.8 96 0.0 29 8   100.59     LegendNANA
07:00 12.6 11.6 94 0.0 29 8   100.64     LegendNANA
08:00 12.8 11.0 89 0.0 29 17   100.67     LegendNANA
09:00 13.3 9.8 80 0.0 31 18   100.70     LegendNANA
10:00 14.4 9.1 71 0.0 31 13   100.74     LegendNANA
11:00 14.9 8.8 67 0.0 33 18   100.79     LegendNANA
12:00 14.8 8.5 66 0.0 33 17   100.80     LegendNANA
13:00 15.7 8.0 60 0.0 33 21   100.74     LegendNANA
14:00 16.0 7.3 56 0.0 33 22   100.75     LegendNANA
15:00 16.0 7.4 57 0.0 32 20   100.76     LegendNANA
16:00 15.9 7.2 56 0.0 32 22   100.77     LegendNANA
17:00 15.2 6.8 57 0.0 31 15   100.77     LegendNANA
18:00 13.7 7.5 66 0.0 30 13   100.80     LegendNANA
19:00 12.7 8.2 74 0.0 29 8   100.83     LegendNANA
20:00 11.1 7.8 80 0.0 26 3   100.86     LegendNANA
21:00 9.8 7.5 85 0.0 26 6   100.86     LegendNANA
22:00 11.1 5.7 69 0.0 30 15   100.84     LegendNANA
23:00 10.7 5.4 69 0.0 29 8   100.82     LegendNANA

Notes on Data Quality.

Legend

  • E = Estimated
  • M = Missing
  • NA = Not Available*
  • [empty] = Indicates an unobserved value
Date modified: